Date,TemperatureHighF,TemperatureAvgF,TemperatureLowF,DewpointHighF,DewpointAvgF,DewpointLowF,HumidityHigh,HumidityAvg,HumidityLow,PressureMaxIn,PressureMinIn,WindSpeedMaxMPH,WindSpeedAvgMPH,GustSpeedMaxMPH,PrecipitationSumIn
2013-2-1,47.4,31.3,17.2,33.0,24.1,14.0,93,76,38,25.37,25.21,17,7,30,0.00
2013-2-2,47.9,34.3,23.7,29.0,21.2,17.0,85,61,31,25.45,25.38,18,6,24,0.01
2013-2-3,55.7,39.0,19.2,26.0,14.9,11.0,78,43,18,25.44,25.11,17,6,22,0.00
2013-2-4,53.0,38.6,22.8,20.0,14.8,10.0,63,41,18,25.19,25.06,20,8,30,0.00
2013-2-5,53.7,40.8,27.3,21.0,19.3,17.0,67,44,26,25.26,25.08,16,5,22,0.00
2013-2-6,53.6,43.2,32.1,26.0,21.6,13.0,70,45,20,25.26,25.03,15,5,23,0.00
2013-2-7,48.7,37.7,22.0,24.0,17.3,14.0,85,47,26,25.35,25.27,11,4,18,0.00
2013-2-8,50.6,35.8,17.4,24.0,18.5,12.0,80,53,29,25.19,24.94,12,2,19,0.00
2013-2-9,32.2,25.8,21.6,24.0,20.7,16.0,89,81,70,24.97,24.79,20,8,27,0.00
2013-2-10,28.2,23.5,15.2,24.0,18.8,9.0,92,82,65,25.23,24.80,30,14,37,0.00
2013-2-11,31.4,16.7,2.6,15.0,7.7,-3.0,83,69,43,25.28,25.19,12,4,12,0.00
2013-2-12,36.7,23.2,5.7,15.0,8.2,-1.0,78,54,34,25.23,25.21,20,10,28,0.00
2013-2-13,43.9,33.0,21.7,28.0,19.2,12.0,89,58,41,25.23,25.11,32,12,36,0.00
2013-2-14,31.2,25.8,17.7,26.0,18.9,12.0,91,75,61,25.45,25.21,24,8,31,0.00
2013-2-15,30.0,23.8,16.3,23.0,17.6,13.0,87,77,56,25.45,25.38,20,7,28,0.00
2013-2-16,50.4,39.0,24.1,22.0,19.6,14.0,79,48,30,25.37,25.14,25,10,32,0.00
2013-2-17,58.6,41.1,24.5,26.0,12.4,-3.0,75,38,8,25.14,24.85,19,8,27,0.00
2013-2-18,36.5,26.8,14.5,25.0,18.5,12.0,90,72,45,25.29,25.02,22,10,31,0.00
2013-2-19,41.5,25.2,9.9,21.0,14.9,7.0,93,68,36,25.29,25.11,20,6,36,0.00
2013-2-20,23.8,19.2,14.7,22.0,15.6,12.0,92,85,76,25.11,24.98,17,6,27,0.00
2013-2-21,21.2,17.6,13.6,16.0,13.7,11.0,90,84,77,25.09,25.01,12,4,15,0.00
2013-2-22,33.8,21.8,5.7,21.0,14.6,2.0,91,75,50,25.15,25.07,13,5,19,0.01
2013-2-23,41.8,28.4,11.0,27.0,16.2,6.0,83,63,38,25.05,24.89,13,4,16,0.02
2013-2-24,32.0,16.4,26.4,29.0,-28.0,-99.9,95,52,85,25.28,24.98,24,-428,25,0.00
2013-2-25,36.8,20.0,9.5,18.0,-12.0,-99.9,86,48,39,25.28,25.05,10,-222,14,0.00
2013-2-26,36.5,27.2,16.5,28.0,20.8,11.0,92,77,52,25.28,25.02,25,12,31,0.00
2013-2-27,33.0,25.7,15.2,24.0,16.0,6.0,91,68,52,25.40,25.28,19,10,24,0.00
2013-2-28,38.2,28.5,14.5,20.0,14.9,6.0,73,58,41,25.42,25.35,20,10,29,0.00